TimeEDT,TemperatureF,Dew PointF,Humidity,Sea Level PressureIn,VisibilityMPH,Wind Direction,Wind SpeedMPH,Gust SpeedMPH,PrecipitationIn,Events,Conditions,WindDirDegrees,DateUTC
12:56 AM,37.9,19.9,48,30.24,10.0,SSE,8.1,-,N/A,,Clear,150,2013-03-10 05:56:00
1:56 AM,41.0,19.0,41,30.23,10.0,SSE,9.2,-,N/A,,Clear,150,2013-03-10 06:56:00
3:56 AM,41.0,18.0,40,30.20,10.0,South,8.1,-,N/A,,Clear,170,2013-03-10 07:56:00
4:56 AM,43.0,16.0,34,30.20,10.0,South,10.4,-,N/A,,Clear,180,2013-03-10 08:56:00
5:56 AM,44.1,16.0,32,30.18,10.0,South,13.8,19.6,N/A,,Overcast,180,2013-03-10 09:56:00
6:56 AM,45.0,15.1,30,30.18,10.0,South,10.4,-,N/A,,Mostly Cloudy,180,2013-03-10 10:56:00
8:56 AM,44.1,16.0,32,30.19,10.0,South,16.1,25.3,N/A,,Mostly Cloudy,180,2013-03-10 12:56:00
9:56 AM,46.9,16.0,29,30.18,10.0,South,11.5,25.3,N/A,,Scattered Clouds,180,2013-03-10 13:56:00
10:56 AM,48.9,17.1,28,30.19,10.0,South,10.4,19.6,N/A,,Clear,190,2013-03-10 14:56:00
11:56 AM,50.0,18.0,28,30.17,10.0,SSW,11.5,21.9,N/A,,Clear,210,2013-03-10 15:56:00
12:56 PM,52.0,19.0,27,30.15,10.0,SSW,8.1,18.4,N/A,,Mostly Cloudy,200,2013-03-10 16:56:00
1:56 PM,53.1,19.9,27,30.15,10.0,South,6.9,-,N/A,,Mostly Cloudy,180,2013-03-10 17:56:00
2:56 PM,55.9,21.9,27,30.11,10.0,SSE,12.7,20.7,N/A,,Clear,160,2013-03-10 18:56:00
3:56 PM,55.9,21.9,27,30.09,10.0,South,13.8,21.9,N/A,,Clear,180,2013-03-10 19:56:00
4:56 PM,57.9,21.0,24,30.09,10.0,South,10.4,18.4,N/A,,Clear,190,2013-03-10 20:56:00
5:56 PM,55.9,21.9,27,30.07,10.0,South,13.8,-,N/A,,Clear,170,2013-03-10 21:56:00
6:56 PM,54.0,23.0,30,30.07,10.0,South,15.0,23.0,N/A,,Clear,170,2013-03-10 22:56:00
7:56 PM,52.0,23.0,32,30.09,10.0,SSE,6.9,-,N/A,,Clear,160,2013-03-10 23:56:00
8:56 PM,51.1,23.0,33,30.10,10.0,South,9.2,18.4,N/A,,Clear,170,2013-03-11 00:56:00
9:56 PM,51.1,23.0,33,30.11,10.0,South,12.7,23.0,N/A,,Clear,170,2013-03-11 01:56:00
10:56 PM,50.0,23.0,35,30.09,10.0,South,13.8,21.9,N/A,,Clear,170,2013-03-11 02:56:00
11:56 PM,50.0,21.9,33,30.07,10.0,South,10.4,19.6,N/A,,Clear,170,2013-03-11 03:56:00
12:56 AM,48.9,21.9,35,30.06,10.0,South,11.5,20.7,N/A,,Clear,170,2013-03-11 04:56:00